Overview Statistics Trail Chart Weather Telemetry Raw packets
 

This is the latest recevied weather packets stored in our database for station/object KI5NXU. If no packets are shown the sender has not sent any weather packets the latest 10 day(s).

<< 108 109 110 111 112 113 114 >>
Time Temp. Humidity Pressure Rain* Wind** Luminosity Snow
1787577115 30° C 47% 1014.6 hPa 0 mm - 74 W/m² -
1787576811 30° C 46% 1014.2 hPa 0 mm - 55 W/m² -
1787576506 30° C 46% 1014.3 hPa 0 mm - 41 W/m² -
1787576202 30° C 46% 1014.3 hPa 0 mm - 46 W/m² -
1787575897 30° C 47% 1014.2 hPa 0 mm - 48 W/m² -
1787575593 30° C 46% 1014.2 hPa 0 mm - 40 W/m² -
1787575288 30° C 46% 1014.1 hPa 0 mm - 34 W/m² -
1787574982 30° C 46% 1014.3 hPa 0 mm - 27 W/m² -
1787574678 30° C 45% 1014.1 hPa 0 mm - 21 W/m² -
1787574373 30° C 45% 1014 hPa 0 mm - 16 W/m² -
1787574071 30° C 45% 1013.8 hPa 0 mm - 11 W/m² -
1787573768 30° C 44% 1014 hPa 0 mm - 7 W/m² -
1787573467 30.56° C 45% 1013.8 hPa 0 mm - 5 W/m² -
1787573163 30° C 45% 1013.6 hPa 0 mm - 2 W/m² -
1787572859 30° C 45% 1013.4 hPa 0 mm - 0 W/m² -
1787572554 30° C 46% 1013.6 hPa 0 mm - 0 W/m² -
1787572254 30° C 46% 1013.5 hPa 0 mm - 0 W/m² -
1787571949 30.56° C 46% 1013.4 hPa 0 mm - 0 W/m² -
1787571648 30.56° C 45% 1013.5 hPa 0 mm - 0 W/m² -
1787571348 30.56° C 45% 1013.3 hPa 0 mm - 0 W/m² -
1787571043 30.56° C 44% 1013 hPa 0 mm - 0 W/m² -
1787570859 30.56° C 44% 1013.2 hPa 0 mm - 0 W/m² -
1787570434 31.11° C 44% 1013.2 hPa 0 mm - 0 W/m² -
1787570132 31.11° C 44% 1013.3 hPa 0 mm - 0 W/m² -
1787569827 31.11° C 44% 1013.2 hPa 0 mm - 0 W/m² -

* Rain latest hour (hover to see other rain measurements)
** Current wind speed in m/s (hover to see current wind gust speed)